CZ-3B R/B (44068 NORAD) Tracking and Keplerian Element Data

This shows tracking and keplerian element data for the satellite.

Feedback or suggestion? Click here.




ElementValue
Catalog44068
NameCZ-3B R/B
Epoch Orbit54
Epoch Day96.07766734
Epoch Year2019
RAAN43.3437
Inclination24.6688
Eccentricity0.7547115
Argument of Perigee193.7446
Mean Anonmoly119.1616
Mean Motion1.98813973
Decay Rate0.00012819
L11 44068U 19012B 19096.07766734 .00012819 16443-5 67981-3 0 9998
L22 44068 24.6688 43.3437 7547115 193.7446 119.1616 1.98813973 549

Live tracking and technical data element details for CZ-3B R/B (NORAD 44068). CZ-3B R/B can be tracked NOW for your location showing map with azimuth and elevation plus other details from your city location.

Track the satellite on the map from your city or location and see movement details for azimuth, elevation, latitude, longitude, range, height, and movement on the map or in text.







IsCatalogInMostPopularTable: catalog: 44068, numindb: 41
Update: records affected: 1



GetName: 44068 CZ-3B R/B

Hit Count: updated at: Mon, 22 Jul 2019 04:13:34 GMT